Weather in Krotovka

Russia / Ulyanovsk Oblast     54°18′06″N   48°08′34″E
temp.,
°C
wind,
m/s
gust,
m/s
humid.,
%
clouds,
%
prec.,
mm/h
press.,
hPa
HPBL,
m
12 april, mon
mon1201:00+3nne4999100 0.0 1032221
04:00+3nne4999100 0.0 1034236
07:00+3n4899100 0.0 1035212
10:00+4ne5998100 0.0 1035225
13:00+9ne468799 0.0 1035291
16:00+11ne3580100 0.0 1034238
19:00+9ne379174 0.0 1034137
22:00+7ne359979 0.0 103585
13 april, tue
tue1301:00+6ene23100100 0.0 103585
04:00+6e12100100 0.0 103551
07:00+6ese129995 0.0 103552
10:00+10se238262 0.0 1035186
13:00+15se355697 0.0 1034675
16:00+17se45445 0.0 1032849
19:00+14se34565 0.0 103261
22:00+11sse23555 0.0 103224
14 april, wed
wed1401:00+9s33605 0.0 103221
04:00+7s22645 0.0 103111
07:00+6sse226460 0.0 103112
10:00+11se244975 0.0 1030245
13:00+15se45395 0.0 1028684
16:00+16se45425 0.0 1027780
19:00+14se23565 0.0 102549
22:00+11se22645 0.0 102511
15 april, thu
thu1501:00+9sse11725 0.0 102410
04:00+8sse01785 0.0 102310
07:00+8ese11825 0.0 102310
10:00+12se22670 0.0 1022215
13:00+16ese235913 0.0 1020861
16:00+17se235116 0.0 10191107
19:00+15se12582 0.0 101733
22:00+13s11670 0.0 101710
16 april, fri
fri1601:00+11s22702 0.0 101610
04:00+10sw22725 0.0 101511
07:00+9sw227231 0.0 101512
10:00+12w226393 0.0 1014146
13:00+17nw23469 0.0 10141075
16:00+18n2442100 0.0 10131769
19:00+11n9127198 0.1 1015665
22:00+5nne71280100 0.1 1017705